[[{"header":{"parameterUnit":"m.s-1","parameterCategory":1,"la1":30.2991,"la2":30.254,"lo1":-89.0895,"lo2":-89.0444,"dy":0.0017,"dx":0.0017,"nx":28,"ny":28,"refTime":"2024-05-01T09:00:00:Z","depth":0,"parameterNumber":2,"parameterNumberName":"U-component_of_WINDS"},"data":[0,0,0,0,0,0,0,0,0,0,0,0,0,0,0,0,0,0,0,0,0,0,0,0,0,0,0,0,0,0,0,0,0,0,0,0,0,0,0,0,0,0,0,0,0,0,0,0,0,0,0,0,0,0,0,0,0,0,-1.9151,-1.9151,0,-1.9154,-1.9154,-1.9154,-1.9111,-1.911,-1.9109,-1.9107,-1.9113,-1.9114,-1.9115,0,0,0,0,0,0,0,0,0,0,0,0,0,-1.9106,-1.9107,-1.9151,-1.9151,-1.9151,-1.9154,-1.9154,-1.9154,-1.9111,-1.911,-1.9108,-1.9107,-1.9112,-1.9114,-1.9115,0,0,0,0,0,0,0,0,0,0,0,0,0,-1.912,-1.9108,-1.915,-1.9129,-1.9128,-1.9154,-1.9154,-1.9154,-1.9111,-1.911,-1.9108,-1.9106,-1.9112,-1.9114,-1.9116,-1.9163,0,0,-1.9121,-1.9122,0,0,0,0,0,0,0,0,-1.9119,-1.9121,-1.9132,-1.9131,-1.9129,-1.913,-1.9141,-1.9157,-1.9112,-1.9118,-1.9107,-1.9105,-1.912,-1.9121,-1.9126,-1.9164,-1.9164,-1.9122,-1.9123,-1.9124,-1.9124,0,0,0,0,0,0,0,-1.9118,-1.9121,-1.9152,-1.9133,-1.9131,-1.912,-1.912,-1.9144,-1.9129,-1.9117,-1.9114,-1.9115,-1.9119,-1.9124,-1.9126,-1.9164,-1.9122,-1.9123,-1.9124,-1.9125,-1.924,-1.9242,0,0,0,0,0,0,-1.912,-1.912,-1.9152,-1.9152,-1.9119,-1.9122,-1.9122,-1.9132,-1.9129,-1.9126,-1.9116,-1.9113,-1.9122,-1.9124,-1.9126,-1.9181,-1.9123,-1.9125,-1.9126,-1.9238,-1.924,-1.9243,0,0,0,0,0,0,-1.9119,-1.9123,-1.9152,-1.9135,-1.9138,-1.9125,-1.9136,-1.9133,-1.9138,-1.9128,-1.9125,-1.9125,-1.9121,-1.9123,-1.9154,-1.9181,-1.9126,-1.9128,-1.9236,-1.9239,-1.9242,-1.9292,0,0,0,0,0,0,-1.9118,-1.9123,-1.9141,-1.9136,-1.9139,-1.918,-1.9138,-1.9134,-1.9141,-1.9137,-1.9135,-1.9133,-1.9119,-1.9151,-1.9156,-1.9182,-1.9129,-1.9233,-1.9237,-1.9241,-1.9288,-1.9297,-1.9304,0,0,0,0,0,-1.9117,-1.9155,-1.9142,-1.9146,-1.9161,-1.9182,-1.9183,-1.9166,-1.9144,-1.9161,-1.9155,-1.9133,-1.9177,-1.9155,-1.916,-1.9187,-1.9232,-1.9236,-1.924,-1.9285,-1.9295,-1.9304,0,0,0,0,0,0,-1.9164,-1.9154,-1.9139,-1.9178,-1.9181,-1.9174,-1.9196,-1.9178,-1.9188,-1.9183,-1.9162,-1.9162,-1.9196,-1.9195,-1.917,-1.9233,-1.92,-1.9206,-1.9233,-1.9242,-1.925,-1.925,-1.9131,0,0,0,0,0,-1.9179,-1.9196,-1.9187,-1.9222,-1.9224,-1.921,-1.9218,-1.9205,-1.9207,-1.9208,-1.9204,-1.9207,-1.9222,-1.9232,-1.9245,-1.9288,-1.9287,-1.9309,-1.9316,-1.9323,-1.9328,-1.935,-1.936,-1.9257,-1.9257,-1.9257,0,0,-1.9211,-1.9207,-1.9219,-1.9231,-1.9232,-1.925,-1.9211,-1.9232,-1.9246,-1.9211,-1.924,-1.9237,-1.924,-1.9277,-1.9293,-1.9276,-1.9356,-1.9328,-1.9334,-1.9335,-1.9356,-1.9365,-1.9374,-1.926,-1.9259,-1.9259,0,0,-1.9277,-1.9276,-1.9305,-1.9306,-1.9307,-1.9297,-1.9304,-1.93,-1.9297,-1.9325,-1.93,-1.9315,-1.9341,-1.9343,-1.9348,-1.9415,-1.9395,-1.9419,-1.946,-1.9482,-1.949,-1.9497,-1.9521,-1.953,-1.9424,-1.9425,-1.9425,0,-1.9316,-1.9342,-1.9322,-1.9345,-1.935,-1.9319,-1.9349,-1.9351,-1.9356,-1.9361,-1.9343,-1.9373,-1.9373,-1.941,-1.9426,-1.9431,-1.9438,-1.942,-1.9491,-1.9497,-1.9504,-1.9526,-1.9535,-1.9427,-1.9427,-1.9427,-1.9427,0,-1.939,-1.9408,-1.9431,-1.9436,-1.9445,-1.9471,-1.9455,-1.9466,-1.9452,-1.9444,-1.9473,-1.9471,-1.9483,-1.9491,-1.9477,-1.9526,-1.9515,-1.9494,-1.9461,-1.9517,-1.9538,-1.9546,-1.9432,-1.9431,-1.943,-1.9429,0,0,-1.9487,-1.948,-1.9489,-1.9491,-1.949,-1.9504,-1.9528,-1.9538,-1.9548,-1.9553,-1.9573,-1.9595,-1.9575,-1.958,-1.9566,-1.9586,-1.9638,-1.9562,-1.9562,-1.9576,-1.9691,-1.9708,-1.9718,-1.9625,-1.9626,-1.9628,-1.9691,0,-1.9552,-1.9592,-1.9575,-1.9617,-1.9634,-1.9604,-1.9625,-1.9627,-1.962,-1.9633,-1.9626,-1.9642,-1.9614,-1.9617,-1.9635,-1.9628,-1.9661,-1.9623,-1.9643,-1.9644,-1.9644,-1.9729,-1.9746,-1.9806,-1.9699,-1.9701,-1.9702,0,-1.9633,-1.964,-1.9684,-1.9678,-1.9685,-1.9704,-1.9712,-1.9725,-1.9726,-1.972,-1.9726,-1.9707,-1.9731,-1.9698,-1.973,-1.9705,-1.9712,-1.971,-1.9712,-1.9713,-1.9677,-1.9733,-1.9825,-1.9834,-1.9714,-1.9713,-1.9712,0,-1.9699,-1.972,-1.9749,-1.9751,-1.9746,-1.976,-1.9759,-1.9758,-1.9765,-1.9772,-1.9777,-1.9787,-1.9793,-1.9801,-1.9786,-1.9763,-1.982,-1.9786,-1.9816,-1.9816,-1.983,-1.9829,-1.9925,-1.9834,-1.9834,-1.9834,-1.9834,0,-1.9773,-1.9802,-1.9778,-1.9796,-1.9827,-1.9806,-1.9837,-1.9832,-1.9832,-1.9848,-1.9823,-1.9839,-1.9818,-1.9833,-1.9821,-1.9849,-1.9852,-1.9848,-1.9845,-1.985,-1.9851,-1.9855,-1.9851,-1.9836,-1.9836,-1.9835,-1.9835,0,-1.9854,-1.9839,-1.9869,-1.9861,-1.9859,-1.9882,-1.9876,-1.9892,-1.9883,-1.9904,-1.9908,-1.9894,-1.9909,-1.9895,-1.991,-1.9902,-1.994,-1.993,-1.9939,-1.9937,-1.9968,-1.9965,-2.0069,-2.0082,-1.9983,-1.9984,-1.9985,0,-1.9902,-1.9923,-1.9917,-1.9926,-1.9925,-1.994,-1.9947,-1.9928,-1.9936,-1.9938,-1.9954,-1.9967,-1.9976,-2.0002,-1.9994,-2.0005,-1.9996,-2.0031,-1.9997,-2.0002,-1.9996,-1.9995,-1.9997,-2.0039,-2.004,-2.0041,-2.0041,0,-1.999,-1.9981,-1.9992,-2.0,-2.0009,-2.0015,-2.0019,-2.0028,-2.0007,-2.0018,-2.0033,-2.004,-2.0054,-2.0068,-2.0076,-2.0074,-2.0055,-2.0052,-2.006,-2.0066,-2.007,-2.0068,-1.9959,-2.005,-2.0049,-2.0049,-2.0048,-2.0048,-2.0056,-2.0072,-2.0071,-2.0083,-2.0084,-2.0088,-2.0102,-2.0095,-2.0106,-2.0116,-2.0104,-2.0122,-2.0122,-2.0131,-2.0132,-2.0146,-2.0131,-2.0142,-2.0145,-2.0148,-2.0152,-2.0068,-2.0147,-2.0147,-2.0147,-2.0147,-2.0146,0,-2.0142,-2.0139,-2.0151,-2.0156,-2.0166,-2.0146,-2.0149,-2.0159,-2.0175,-2.0176,-2.0185,-2.0202,-2.0214,-2.0207,-2.0217,-2.023,-2.0221,-2.0234,-2.0233,-2.0233,-2.0165,-2.0157,-2.024,-2.024,-2.024,-2.024,-2.024,-2.024,-2.0188,-2.0216,-2.0207,-2.0234,-2.023,-2.0248,-2.0251,-2.0254,-2.0255,-2.0275,-2.0285,-2.0279,-2.0277,-2.0287,-2.0297,-2.0294,-2.03,-2.0315,-2.031,-2.0247,-2.0237,-2.0229,-2.0221,-2.0316,-2.0317,-2.0376,-2.0376,-2.0377]},{"header":{"parameterUnit":"m.s-1","parameterCategory":1,"la1":30.2991,"la2":30.254,"lo1":-89.0895,"lo2":-89.0444,"dy":0.0017,"dx":0.0017,"nx":28,"ny":28,"refTime":"2024-05-01T09:00:00:Z","depth":0,"parameterNumber":3,"parameterNumberName":"V-component_of_WINDS"},"data":[0,0,0,0,0,0,0,0,0,0,0,0,0,0,0,0,0,0,0,0,0,0,0,0,0,0,0,0,0,0,0,0,0,0,0,0,0,0,0,0,0,0,0,0,0,0,0,0,0,0,0,0,0,0,0,0,0,0,1.2672,1.2671,0,1.2633,1.2632,1.2632,1.2587,1.2586,1.2586,1.2585,1.2544,1.2544,1.2543,0,0,0,0,0,0,0,0,0,0,0,0,0,1.2706,1.2706,1.2672,1.2671,1.2671,1.2633,1.2632,1.2632,1.2587,1.2586,1.2585,1.2585,1.2544,1.2544,1.2543,0,0,0,0,0,0,0,0,0,0,0,0,0,1.2682,1.2706,1.2672,1.2644,1.2641,1.2633,1.2632,1.2632,1.2587,1.2586,1.2585,1.2584,1.2544,1.2544,1.2543,1.2559,0,0,1.2541,1.2541,0,0,0,0,0,0,0,0,1.2683,1.268,1.2649,1.2646,1.2643,1.2614,1.2629,1.2607,1.2588,1.2608,1.2585,1.2584,1.2568,1.2565,1.256,1.2557,1.2555,1.2541,1.254,1.254,1.254,0,0,0,0,0,0,0,1.2685,1.2682,1.2656,1.2648,1.2644,1.2633,1.2628,1.2625,1.2594,1.2606,1.2602,1.2599,1.2566,1.2561,1.2559,1.2555,1.2541,1.254,1.254,1.2539,1.2562,1.2563,0,0,0,0,0,0,1.2691,1.2684,1.2658,1.2655,1.2661,1.2633,1.2628,1.2624,1.2594,1.2588,1.2599,1.2597,1.2563,1.256,1.2557,1.2574,1.254,1.2539,1.2539,1.2561,1.2563,1.2564,0,0,0,0,0,0,1.2692,1.2689,1.2659,1.2668,1.2664,1.2634,1.263,1.2624,1.2619,1.2589,1.2583,1.26,1.2562,1.2558,1.2559,1.2572,1.2539,1.2538,1.256,1.2562,1.2563,1.2607,0,0,0,0,0,0,1.2693,1.269,1.2696,1.2669,1.2663,1.2662,1.263,1.2624,1.2618,1.2613,1.2588,1.2583,1.2561,1.256,1.2558,1.257,1.2538,1.2559,1.2561,1.2563,1.2605,1.261,1.2615,0,0,0,0,0,1.2694,1.2709,1.2696,1.2693,1.267,1.2663,1.266,1.2634,1.2619,1.2624,1.2605,1.2583,1.2571,1.2561,1.2558,1.257,1.2558,1.256,1.2562,1.2602,1.2609,1.2615,0,0,0,0,0,0,1.2738,1.2705,1.269,1.2697,1.2683,1.2655,1.2662,1.2642,1.2632,1.2629,1.2597,1.2592,1.2596,1.2583,1.2572,1.2584,1.2561,1.2563,1.2592,1.2598,1.2604,1.2607,1.2537,0,0,0,0,0,1.2749,1.2746,1.2717,1.2726,1.272,1.2692,1.2688,1.2669,1.2653,1.2647,1.2628,1.2613,1.2605,1.2601,1.2593,1.2602,1.2596,1.2609,1.2615,1.2619,1.2621,1.2625,1.263,1.2571,1.2571,1.2571,0,0,1.277,1.2752,1.2752,1.2734,1.2721,1.2718,1.2687,1.2686,1.2683,1.2647,1.2646,1.2632,1.2613,1.2618,1.262,1.2607,1.2636,1.2622,1.2626,1.2625,1.2628,1.2633,1.2638,1.2573,1.2573,1.2572,0,0,1.2808,1.2794,1.28,1.2788,1.2768,1.275,1.2751,1.2726,1.2715,1.2715,1.2687,1.2683,1.2671,1.2659,1.2651,1.2684,1.2663,1.2682,1.2709,1.2714,1.2718,1.2722,1.2734,1.2738,1.2684,1.2684,1.2684,0,1.2838,1.2833,1.2806,1.2806,1.2798,1.2766,1.2771,1.276,1.2739,1.2735,1.2722,1.2706,1.269,1.2692,1.27,1.2695,1.2696,1.2685,1.272,1.2724,1.2727,1.2738,1.2742,1.2687,1.2687,1.2686,1.2686,0,1.287,1.2866,1.2873,1.2854,1.2848,1.285,1.2823,1.282,1.2802,1.2785,1.2785,1.2765,1.2752,1.2751,1.2734,1.2751,1.2744,1.2726,1.2702,1.2735,1.2745,1.2749,1.269,1.2689,1.2689,1.2688,0,0,1.2934,1.29,1.2903,1.2894,1.287,1.2867,1.2868,1.2855,1.2853,1.2839,1.2839,1.283,1.2813,1.2804,1.2785,1.2789,1.2816,1.277,1.2769,1.2779,1.2833,1.2847,1.2852,1.2802,1.2803,1.2803,1.2835,0,1.2968,1.2968,1.2944,1.2951,1.2947,1.2916,1.2917,1.2902,1.2886,1.2881,1.2862,1.2856,1.2834,1.2829,1.2831,1.2812,1.2826,1.281,1.2801,1.2801,1.2807,1.2857,1.2872,1.2902,1.2838,1.2839,1.2839,0,1.3007,1.2996,1.3003,1.2979,1.2976,1.2978,1.2964,1.2959,1.2942,1.293,1.292,1.2898,1.2897,1.2875,1.2873,1.2862,1.2857,1.2847,1.2848,1.2846,1.2822,1.2856,1.2911,1.2916,1.2845,1.2844,1.2844,0,1.3054,1.3041,1.3043,1.3036,1.3008,1.3009,1.2997,1.2979,1.2973,1.2961,1.2957,1.2945,1.2938,1.2929,1.2905,1.2891,1.2905,1.2881,1.2895,1.2896,1.29,1.29,1.2954,1.2897,1.2897,1.2897,1.2896,0,1.3094,1.3099,1.3063,1.3065,1.307,1.3041,1.3047,1.3032,1.3016,1.3013,1.2985,1.2984,1.2951,1.2946,1.2927,1.2928,1.2925,1.2915,1.291,1.2917,1.2919,1.2914,1.2911,1.2898,1.2897,1.2897,1.2897,0,1.3147,1.3123,1.3123,1.3097,1.309,1.3095,1.3072,1.3072,1.3054,1.3051,1.3049,1.3021,1.3013,1.2987,1.2973,1.296,1.2967,1.2957,1.2973,1.297,1.2985,1.2984,1.3038,1.3044,1.2983,1.2984,1.2984,0,1.3174,1.3178,1.3151,1.3148,1.3137,1.3132,1.3126,1.3098,1.3093,1.3073,1.3075,1.3065,1.3056,1.3044,1.3022,1.3011,1.3001,1.3021,1.2999,1.3007,1.3001,1.3001,1.3001,1.3025,1.3026,1.3027,1.3027,0,1.3225,1.3213,1.3206,1.3194,1.3187,1.3176,1.3164,1.3163,1.3131,1.3127,1.3118,1.3111,1.3097,1.3087,1.3072,1.3059,1.3038,1.3034,1.3037,1.3045,1.3054,1.3049,1.2986,1.3033,1.3033,1.3032,1.3032,1.3032,1.3266,1.3268,1.3249,1.3242,1.3229,1.3218,1.3217,1.3199,1.3192,1.3178,1.3162,1.3155,1.3137,1.3115,1.3104,1.3098,1.3087,1.3091,1.3092,1.3093,1.3097,1.3055,1.3096,1.3095,1.3095,1.3095,1.3095,0,1.3316,1.3302,1.3296,1.3279,1.3273,1.3254,1.3239,1.3235,1.323,1.3215,1.3206,1.3196,1.3187,1.3164,1.3152,1.3152,1.3142,1.315,1.315,1.3147,1.3108,1.3107,1.3158,1.3158,1.3158,1.3158,1.3158,1.3158,1.3341,1.3342,1.3328,1.3323,1.3309,1.3303,1.3296,1.3286,1.3274,1.3264,1.3256,1.3242,1.3223,1.321,1.32,1.3194,1.319,1.3202,1.3192,1.3156,1.315,1.3144,1.3143,1.3201,1.3201,1.3232,1.3232,1.3232]}]]